User: anonymous   Login
Location: Castelbiague
(43.0361°N, 0.9246°E)
Time: 10:55:17
(UTC+00:00)
Language:

COSMOS 2428 - Orbit

View from above orbital plane
View from above orbital plane
View from above satellite
View from above satellite

Ground track
Ground track

The orbit data is extracted from the following two-line orbital elements,

1 31792U 07029A   21266.07552566  .00000309  00000-0  19359-3 0  9995
2 31792  70.9157  20.9013 0005672  97.3751 262.8014 14.12358270734189
Epoch (UTC): 23 September 2021 01:48:45
Eccentricity: 0.0005672
inclination: 70.9157°
perigee height: 847 km
apogee height: 855 km
right ascension of ascending node: 20.9013°
argument of perigee: 97.3751°
revolutions per day: 14.12358270
mean anomaly at epoch: 262.8014°
orbit number at epoch: 73418

The dashed part of the orbit path shows where the satellite is in the earth's shadow,  

DLR